Location: Newark
(15.4608°S, 41.1635°W)
Time: 18:00:02
(UTC+00:00)

deb Explorer IX - Visible Passes

Search period start: 04 March 2021 00:00
Search period end: 14 March 2021 00:00
Orbit: 537 x 1102 km, 38.8° (Epoch: 04 March)

Date Brightness Start Highest point End Pass type
(mag) Time Alt. Az. Time Alt. Az. Time Alt. Az.
04 Mar ? 22:25:31 10° SW 22:31:58 48° SSE 22:33:35 39° ESE visible
05 Mar ? 00:13:32 10° WSW 00:14:51 15° W 00:14:51 15° W visible
05 Mar ? 22:01:30 10° SW 22:08:06 49° SSE 22:11:23 25° E visible
05 Mar ? 23:49:31 10° WSW 23:52:40 24° W 23:52:40 24° W visible
06 Mar ? 21:37:29 10° SW 21:44:14 50° SSE 21:49:17 14° ENE visible
06 Mar ? 23:25:30 10° WSW 23:30:34 32° WNW 23:30:34 32° WNW visible
07 Mar ? 23:01:29 10° WSW 23:07:23 34° NW 23:08:33 31° NNW visible
08 Mar ? 22:37:27 10° WSW 22:43:31 35° NW 22:46:38 22° N visible
09 Mar ? 22:13:24 10° WSW 22:19:38 36° NW 22:24:48 12° NNE visible
10 Mar ? 21:49:22 10° WSW 21:55:44 36° NW 22:01:25 10° NNE visible
11 Mar ? 21:25:20 10° WSW 21:31:48 37° NW 21:37:40 10° NNE visible
